Flag Weather past 2 weeks in Linz, Upper Austria, Austria

Now
36 °F

Partly sunny.


Feels Like: 29 °F
Forecast: 36 / 43 °F
Wind: 9 mph from East

Location: Linz / Hoersching-Flughafen

Current Time: Nov 29, 2014 at 9:55:18 AM

Latest Report: Nov 29, 2014 at 9:20 AM


Visibility: N/A

Pressure: 30.04 "Hg

Humidity: 87%

Dew point: 32 °F

Location of LinzLocation

Historic Weather in Linz — Graph

°F

Linz temperature yesterday

Maximum temperature yesterday: 37 °F (at 12:20 PM)
Minimum temperature yesterday: 36 °F (at 12:20 AM)
Average temperature yesterday: 36 °F

Past Weeks' High & Low Weather Summary

 TemperatureHumidityPressure
High57 °F (Nov 14, 1:50 PM)100% (Nov 14, 8:20 AM)30.30 "Hg (Nov 14, 8:20 AM)
Low32 °F (Nov 27, 3:50 AM)63% (Nov 16, 11:50 AM)29.47 "Hg (Nov 16, 12:50 AM)
Average42 °F85%30.01 "Hg
* Reported Nov 14 8:20 AM — Nov 29 8:50 AM, Linz, Weather by CustomWeather, © 2014

Note: Actual official high and low records may vary slightly from our data, if they occured in-between our weather recording intervals... More about our weather records

Advertising

Linz weather history for previous 24 hours

 ConditionsComfort  
Time TempWeatherWind HumidityBarometerVisibility
8:50 AM
Nov 29
36 °FBroken clouds.13 mph87%30.04 "HgN/A
8:20 AM36 °FPartly sunny.13 mph87%30.04 "HgN/A
7:50 AM36 °FBroken clouds.13 mph87%30.04 "HgN/A
7:20 AM36 °FPartly cloudy.12 mph87%30.01 "HgN/A
6:50 AM36 °FPartly cloudy.12 mph87%30.01 "HgN/A
6:20 AM36 °FPartly cloudy.9 mph87%30.01 "HgN/A
5:50 AM36 °FPartly cloudy.10 mph87%30.01 "HgN/A
5:20 AM36 °FPartly cloudy.10 mph87%30.01 "HgN/A
4:50 AM36 °FPartly cloudy.10 mph87%30.01 "HgN/A
4:20 AM36 °FPartly cloudy.13 mph87%30.01 "HgN/A
3:50 AM36 °FPassing clouds.14 mph87%30.01 "HgN/A
3:20 AM36 °FPassing clouds.14 mph87%30.01 "HgN/A
2:50 AM36 °FPartly cloudy.13 mph87%30.01 "HgN/A
2:20 AM36 °FPassing clouds.14 mph87%30.01 "HgN/A
1:50 AM36 °FPassing clouds.14 mph87%30.01 "HgN/A
1:20 AM36 °FPassing clouds.13 mph87%30.01 "HgN/A
12:50 AM36 °FPassing clouds.12 mph87%30.01 "HgN/A
12:20 AM36 °FPassing clouds.13 mph87%30.01 "HgN/A
11:50 PM
Nov 28
36 °FPassing clouds.12 mph87%30.01 "HgN/A
11:20 PM36 °FPassing clouds.13 mph87%30.01 "HgN/A
10:50 PM36 °FPassing clouds.12 mph87%30.01 "HgN/A
10:20 PM36 °FPassing clouds.14 mph87%30.01 "HgN/A
9:50 PM36 °FPassing clouds.14 mph87%30.01 "HgN/A
9:20 PM36 °FPassing clouds.13 mph87%29.98 "HgN/A
8:50 PM36 °FPartly cloudy.13 mph87%29.98 "HgN/A
8:20 PM36 °FPartly cloudy.14 mph87%29.98 "HgN/A
7:50 PM36 °FPartly cloudy.14 mph87%29.98 "HgN/A
7:20 PM36 °FPartly cloudy.16 mph87%29.98 "HgN/A
6:50 PM36 °FPartly cloudy.16 mph87%29.98 "HgN/A
6:20 PM36 °FPartly cloudy.14 mph87%29.98 "HgN/A
5:50 PM36 °FPartly cloudy.14 mph87%29.98 "HgN/A
5:20 PM36 °FPassing clouds.14 mph87%29.98 "HgN/A
4:50 PM36 °FPassing clouds.13 mph87%29.95 "HgN/A
4:20 PM36 °FPartly cloudy.12 mph87%29.95 "HgN/A
3:50 PM36 °FBroken clouds.12 mph87%29.95 "HgN/A
3:20 PM36 °FBroken clouds.12 mph87%29.95 "HgN/A
2:50 PM36 °FPartly sunny.10 mph87%29.95 "HgN/A
2:20 PM36 °FPartly sunny.13 mph87%29.95 "HgN/A
1:50 PM36 °FPartly sunny.13 mph87%29.95 "HgN/A
1:20 PM37 °FPartly sunny.13 mph81%29.95 "HgN/A
12:50 PM36 °FPartly sunny.13 mph87%29.95 "HgN/A
12:20 PM37 °FPartly sunny.13 mph81%29.95 "HgN/A
11:50 AM36 °FPartly sunny.14 mph87%29.95 "HgN/A
11:20 AM36 °FOvercast.14 mph87%29.95 "HgN/A
10:50 AM36 °FPartly sunny.14 mph87%29.95 "HgN/A
10:20 AM36 °FPartly sunny.13 mph87%29.98 "HgN/A
9:50 AM36 °FPartly sunny.10 mph87%29.98 "HgN/A
9:20 AM36 °FPartly sunny.12 mph87%29.95 "HgN/A
Weather by CustomWeather, © 2014

See weather overviewHow to use our weather pages